Bennington, VT

12:17 PM EST on December 11, 2019 (GMT -0500)
Morse State

Weather History for KDDH - September, 2019

Change the Weather History Date:

Friday, September 20, 2019

  Actual Average Record
Temperature  
Mean Temperature 54 °F 57 °F  
Max Temperature 73 °F 69 °F 80 °F (2000)
Min Temperature 35 °F 46 °F 34 °F (2004)
Degree Days  
Heating Degree Days 11 8  
Month to date heating degree days 130 104  
Since 1 July heating degree days 165 176  
Cooling Degree Days 0 0  
Month to date cooling degree days 12 22  
Year to date cooling degree days 363 310  
Growing Degree Days 5 (Base 50)    
Moisture  
Dew Point 45 °F    
Average Humidity 70    
Maximum Humidity 93    
Minimum Humidity 46    
Precipitation  
Precipitation 0.00 in 0.13 in 0.69 in (2001)
Month to date precipitation 1.53 2.24  
Year to date precipitation 29.00 29.78  
Sea Level Pressure  
Sea Level Pressure 30.22 in    
Wind  
Wind Speed 2 mph (SW)    
Max Wind Speed 8 mph    
Max Gust Speed 10 mph    
Visibility 10 miles    
Events      
T = Trace of Precipitation, MM = Missing Value Source: NWS Daily Summary

Daily Weather History Graph

Daily Weather History Graph

Search for Another Location

Airport or City:

Astronomy

Sep. 20, 2019 Rise Set
Actual Time 6:37 AM EDT 6:54 PM EDT
Civil Twilight 6:09 AM EDT 7:22 PM EDT
Nautical Twilight 5:36 AM EDT 7:55 PM EDT
Astronomical Twilight 5:02 AM EDT 8:29 PM EDT
Moon 10:33 PM EDT (9/20) 12:48 PM EDT (9/20)
Length of Visible Light 13h 13m
Length of Day
12h 16m
Waning Gibbous, 65% of the Moon is Illuminated
Sep 20
Waning Gibbous
Sep 21
Last Quarter
Sep 28
New
Oct 5
First Quarter
Oct 13
Full

Hourly Weather History & Observations

Time (EDT) Temp. Dew Point Humidity Pressure Visibility Wind Dir Wind Speed Gust Speed Precip Events Conditions
12:54 AM 39.9 °F 37.0 °F 89% 30.27 in 10.0 mi Calm Calm - N/A   Clear
1:54 AM 39.0 °F 37.0 °F 93% 30.27 in 10.0 mi Calm Calm - N/A   Clear
2:54 AM 39.0 °F 37.0 °F 93% 30.25 in 10.0 mi Calm Calm - N/A   Clear
3:54 AM 39.0 °F 36.0 °F 89% 30.25 in 10.0 mi Calm Calm - N/A   Clear
4:54 AM 37.9 °F 36.0 °F 93% 30.26 in 10.0 mi Calm Calm - N/A   Clear
5:54 AM 37.9 °F 35.1 °F 89% 30.26 in 10.0 mi Calm Calm - N/A   Clear
6:54 AM 37.9 °F 35.1 °F 89% 30.27 in 10.0 mi Calm Calm - N/A   Clear
7:54 AM 43.0 °F 39.9 °F 89% 30.28 in 10.0 mi Calm Calm - N/A   Clear
8:54 AM 50.0 °F 45.0 °F 83% 30.29 in 10.0 mi Calm Calm - N/A   Clear
9:54 AM 59.0 °F 48.0 °F 67% 30.28 in 10.0 mi Calm Calm - N/A   Clear
10:54 AM 62.1 °F 46.9 °F 58% 30.27 in 10.0 mi Calm Calm - N/A   Clear
11:54 AM 66.0 °F 48.9 °F 54% 30.25 in 10.0 mi Calm Calm - N/A   Clear
12:54 PM 68.0 °F 48.9 °F 50% 30.22 in 10.0 mi West 8.1 mph - N/A   Clear
1:54 PM 70.0 °F 48.9 °F 47% 30.19 in 10.0 mi Calm Calm - N/A   Clear
2:54 PM 72.0 °F 51.1 °F 48% 30.17 in 10.0 mi Variable 6.9 mph - N/A   Clear
3:54 PM 72.0 °F 50.0 °F 46% 30.17 in 10.0 mi West 5.8 mph - N/A   Clear
4:54 PM 73.0 °F 51.1 °F 46% 30.17 in 10.0 mi Variable 3.5 mph - N/A   Clear
5:54 PM 70.0 °F 55.9 °F 61% 30.17 in 10.0 mi Calm Calm - N/A   Clear
6:54 PM 59.0 °F 54.0 °F 83% 30.17 in 10.0 mi South 4.6 mph - N/A   Clear
7:54 PM 55.9 °F 51.1 °F 84% 30.19 in 10.0 mi South 3.5 mph - N/A   Clear
8:54 PM 53.1 °F 50.0 °F 89% 30.19 in 10.0 mi Calm Calm - N/A   Clear
9:54 PM 51.1 °F 48.0 °F 89% 30.19 in 10.0 mi South 4.6 mph - N/A   Clear
10:54 PM 50.0 °F 46.9 °F 89% 30.19 in 10.0 mi Calm Calm - N/A   Clear
11:54 PM 48.9 °F 46.0 °F 90% 30.18 in 10.0 mi Calm Calm - N/A   Clear